Hattiesburg, MS

1:13 AM CDT on April 26, 2017 (GMT -0500)
Chain Municipal

Weather History for KHBG - February, 2014

Change the Weather History Date:

Monday, February 24, 2014

  Actual Average Record
Temperature  
Mean Temperature 61 °F 54 °F  
Max Temperature 72 °F 66 °F 83 °F (1996)
Min Temperature 50 °F 43 °F 20 °F (1989)
Degree Days  
Heating Degree Days 4 11  
Month to date heating degree days 324 336  
Since 1 July heating degree days 1858 1635  
Cooling Degree Days 0 0  
Month to date cooling degree days 17 0  
Year to date cooling degree days 17 6  
Growing Degree Days 12 (Base 50)    
Moisture  
Dew Point 53 °F    
Average Humidity 69    
Maximum Humidity 96    
Minimum Humidity 41    
Precipitation  
Precipitation 0.00 in 0.19 in 2.40 in (1979)
Month to date precipitation 6.45 4.61  
Year to date precipitation 9.12 10.35  
Sea Level Pressure  
Sea Level Pressure 30.08 in    
Wind  
Wind Speed 3 mph (North)    
Max Wind Speed 13 mph    
Max Gust Speed 15 mph    
Visibility 6 miles    
Events Fog    
T = Trace of Precipitation, MM = Missing Value Source: NWS Daily Summary

Daily Weather History Graph

Daily Weather History Graph

Search for Another Location

Airport or City:

Trip Planner

Search our weather history database for the weather conditions in past years. The results will help you decide how hot, cold, wet, or windy it might be!

Date:

Astronomy

Feb. 24, 2014 Rise Set
Actual Time 6:29 AM CST 5:51 PM CST
Civil Twilight 6:04 AM CST 6:16 PM CST
Nautical Twilight 5:36 AM CST 6:44 PM CST
Astronomical Twilight 5:08 AM CST 7:12 PM CST
Moon 2:16 AM CST (2/24) 1:03 PM CST (2/24)
Length of Visible Light 12h 11m
Length of Day
11h 22m
Waning Crescent, 28% of the Moon is Illuminated
Feb 24
Waning Crescent
Mar 1
New
Mar 8
First Quarter
Mar 16
Full
Mar 23
Last Quarter

Hourly Weather History & Observations

Time (CST) Temp. Dew Point Humidity Pressure Visibility Wind Dir Wind Speed Gust Speed Precip Events Conditions
12:26 AM 60.1 °F 57.9 °F 93% 30.05 in 1.8 mi South 3.5 mph - N/A   Overcast
12:36 AM 60.1 °F 57.9 °F 93% 30.05 in 0.8 mi Calm Calm - N/A   Overcast
12:43 AM 59.0 °F 57.9 °F 96% 30.05 in 1.0 mi Calm Calm - N/A   Overcast
12:53 AM 60.1 °F 57.9 °F 93% 30.04 in 1.8 mi Calm Calm - N/A   Overcast
12:59 AM 60.1 °F 59.0 °F 96% 30.04 in 3.0 mi Calm Calm - N/A   Overcast
1:02 AM 60.1 °F 57.9 °F 93% 30.04 in 1.8 mi Calm Calm - N/A   Overcast
1:21 AM 59.0 °F 57.9 °F 96% 30.05 in 2.5 mi Calm Calm - N/A   Overcast
1:42 AM 59.0 °F 57.0 °F 93% 30.04 in 1.8 mi North 5.8 mph - N/A   Overcast
1:53 AM 59.0 °F 57.0 °F 93% 30.04 in 1.5 mi North 4.6 mph - N/A   Mostly Cloudy
2:08 AM 57.9 °F 57.0 °F 97% 30.04 in 0.5 mi Calm Calm - N/A Fog Fog
2:17 AM 57.9 °F 55.9 °F 93% 30.04 in 0.2 mi NNW 3.5 mph - N/A Fog Fog
2:29 AM 59.0 °F 57.0 °F 93% 30.04 in 0.5 mi NNW 3.5 mph - N/A Fog Fog
2:44 AM 59.0 °F 57.9 °F 96% 30.04 in 1.5 mi Calm Calm - N/A   Overcast
2:50 AM 59.0 °F 57.2 °F 94% 30.05 in 3.0 mi WNW 3.5 mph - N/A   Overcast
2:53 AM 59.0 °F 57.9 °F 96% 30.04 in 3.0 mi Calm Calm - N/A   Overcast
3:04 AM 59.0 °F 57.9 °F 96% 30.05 in 3.0 mi NNW 4.6 mph - N/A   Overcast
3:20 AM 59.0 °F 57.0 °F 93% 30.05 in 7.0 mi NNW 5.8 mph - N/A   Overcast
3:40 AM 57.9 °F 55.9 °F 93% 30.06 in 9.0 mi North 8.1 mph - N/A   Mostly Cloudy
3:53 AM 57.0 °F 55.0 °F 93% 30.06 in 10.0 mi North 4.6 mph - N/A   Scattered Clouds
4:53 AM 55.0 °F 50.0 °F 83% 30.09 in 10.0 mi North 6.9 mph - N/A   Partly Cloudy
5:53 AM 53.1 °F 46.0 °F 77% 30.12 in 10.0 mi NNE 6.9 mph - N/A   Mostly Cloudy
6:53 AM 52.0 °F 45.0 °F 77% 30.15 in 10.0 mi North 3.5 mph - N/A   Clear
7:53 AM 53.1 °F 43.0 °F 69% 30.17 in 10.0 mi NNE 6.9 mph - N/A   Clear
8:53 AM 55.9 °F 43.0 °F 62% 30.18 in 10.0 mi North 11.5 mph - N/A   Overcast
9:53 AM 57.9 °F 43.0 °F 58% 30.18 in 10.0 mi NNE 10.4 mph - N/A   Scattered Clouds
10:53 AM 61.0 °F 44.1 °F 54% 30.16 in 10.0 mi NNW 5.8 mph - N/A   Clear
11:53 AM 64.9 °F 45.0 °F 48% 30.13 in 10.0 mi Variable 4.6 mph - N/A   Clear
12:53 PM 68.0 °F 46.0 °F 45% 30.10 in 10.0 mi Variable 3.5 mph - N/A   Clear
1:53 PM 71.1 °F 46.9 °F 42% 30.08 in 10.0 mi Calm Calm - N/A   Clear
2:53 PM 71.1 °F 48.9 °F 45% 30.07 in 10.0 mi Calm Calm - N/A   Clear
3:53 PM 71.1 °F 48.0 °F 44% 30.06 in 10.0 mi Calm Calm - N/A   Clear
4:53 PM 69.1 °F 52.0 °F 54% 30.06 in 10.0 mi SSE 5.8 mph - N/A   Partly Cloudy
5:53 PM 68.0 °F 53.1 °F 59% 30.08 in 10.0 mi Calm Calm - N/A   Clear
6:53 PM 61.0 °F 55.0 °F 81% 30.08 in 10.0 mi Calm Calm - N/A   Clear
7:53 PM 59.0 °F 54.0 °F 83% 30.10 in 10.0 mi Calm Calm - N/A   Scattered Clouds
8:53 PM 57.0 °F 52.0 °F 83% 30.10 in 10.0 mi Calm Calm - N/A   Clear
9:53 PM 54.0 °F 51.1 °F 90% 30.11 in 9.0 mi Calm Calm - N/A   Clear
10:53 PM 52.0 °F 50.0 °F 93% 30.10 in 8.0 mi Calm Calm - N/A   Clear
11:53 PM 51.1 °F 48.0 °F 89% 30.09 in 9.0 mi Calm Calm - N/A   Clear